Home > Weather > Havana > Past weeks

Flag for Cuba Weather for the Past 2 Weeks in Havana, Cuba

Now
66 °F

Passing clouds.


Feels Like: 66 °F
Forecast: 67 / 71 °F
Wind: 8 mph from North

Location: Aeropuerto Jose Marti - Rancho-Boyeros - Habana

Current Time: Feb 11, 2016 at 12:58:02 AM

Latest Report: Feb 10, 2016 at 11:55 PM


Visibility: 6 mi

Pressure: 30.27 "Hg

Humidity: 56%

Dew point: 50 °F

Location of HavanaLocation

Historic Weather in Havana — Graph

°F

Havana Temperature Yesterday

Maximum temperature yesterday: 73 °F (at 1:55 PM)
Minimum temperature yesterday: 63 °F (at 1:55 AM)
Average temperature yesterday: 68 °F

High & Low Weather Summary for the Past Weeks

 TemperatureHumidityPressure
High86 °F (Feb 2, 1:55 PM)94% (Jan 30, 4:55 AM)30.27 "Hg (Jan 30, 4:55 AM)
Low50 °F (Jan 30, 6:55 AM)43% (Feb 8, 10:55 AM)29.86 "Hg (Jan 28, 1:55 PM)
Average70 °F73%30.06 "Hg
* Reported Jan 26 11:55 PM — Feb 10 11:55 PM, Havana, Weather by CustomWeather, © 2016

Note: Actual official high and low records may vary slightly from our data, if they occured in-between our weather recording intervals... More about our weather records

Advertising

Havana Weather History for the Previous 24 Hours

 ConditionsComfort  
Time TempWeatherWind HumidityBarometerVisibility
11:55 PM
Wed, Feb 10
66 °FPassing clouds.8 mph56%30.27 "Hg6 mi
10:55 PM66 °FPassing clouds.8 mph56%30.27 "Hg6 mi
9:55 PM66 °FPassing clouds.9 mph56%30.27 "Hg6 mi
8:55 PM66 °FPassing clouds.8 mph60%30.24 "Hg6 mi
7:55 PM66 °FPassing clouds.9 mph60%30.24 "Hg6 mi
6:55 PM68 °FPassing clouds.12 mph60%30.21 "Hg6 mi
5:55 PM68 °FPartly sunny.12 mph56%30.21 "HgN/A
4:55 PM70 °FPartly sunny.10 mph57%30.21 "HgN/A
3:55 PM70 °FPartly sunny.10 mph57%30.18 "HgN/A
2:55 PM72 °FPartly sunny.12 mph53%30.18 "HgN/A
1:55 PM73 °FPartly sunny.12 mph47%30.18 "HgN/A
12:55 PM72 °FPartly sunny.12 mph53%30.21 "HgN/A
11:55 AM70 °FPartly sunny.13 mph57%30.24 "HgN/A
10:55 AM70 °FPartly sunny.9 mph57%30.24 "HgN/A
9:55 AM72 °FPartly sunny.10 mph50%30.24 "HgN/A
8:55 AM70 °FPartly sunny.6 mph57%30.24 "HgN/A
7:55 AM68 °FPartly sunny.5 mph60%30.21 "Hg6 mi
6:55 AM68 °FPassing clouds.9 mph56%30.18 "Hg6 mi
5:55 AM68 °FPassing clouds.9 mph60%30.15 "Hg6 mi
4:55 AM63 °FPassing clouds.3 mph77%30.15 "Hg6 mi
3:55 AM63 °FPassing clouds.3 mph77%30.12 "Hg6 mi
2:55 AM63 °FPassing clouds.5 mph77%30.12 "Hg6 mi
1:55 AM63 °FPassing clouds.5 mph77%30.15 "Hg6 mi
12:55 AM64 °FPassing clouds.5 mph68%30.15 "Hg6 mi
Weather by CustomWeather, © 2016

See weather overviewHow to use our weather pages